588  
ASUS43 KIWX 191110  
RWRIWX  
 
KIWX WEATHER ROUNDUP  
NATIONAL WEATHER SERVICE NORTHERN INDIANA  
700 AM EDT SUN MAY 19 2019  
 
NOTE: "FAIR" INDICATES FEW OR NO CLOUDS BELOW 12,000 FEET WITH NO  
SIGNIFICANT WEATHER AND/OR S TO VISIBILITY
.  
 
* THESE STATIONS ARE NOT UNDER NWS QUALITY CONTROL. THEY ALSO MAY NOT  
REPORT WEATHER SUCH AS PRECIPITATION OR FOG.
 
 
INZ001>027-191200-  
NORTHERN INDIANA  
 
CITY SKY/WX TMP DP RH WIND PRES REMARKS
 
GARY* LGT RAIN 70 64 83 S12G26 29.65S  
VALPARAISO LGT RAIN 67 62 84 S12 29.69S  
MICHIGAN CITY* RAIN 64 61 88 S10G22 29.70R  
LAPORTE* LGT RAIN 65 63 91 S6 29.71S  
KNOX* CLOUDY 64 61 88 SE13 29.70S  
SOUTH BEND LGT RAIN 68 61 78 S14G21 29.70R  
GOSHEN LGT RAIN 70 61 73 S15 29.71S  
MONTICELLO* CLOUDY 69 61 75 S12 29.69F  
ROCHESTER* DRIZZLE 70 63 78 S9 29.72S  
WARSAW* CLOUDY 70 61 73 SW7 29.73R  
AUBURN* FAIR 68 63 83 CALM 29.76S  
FORT WAYNE MOCLDY 71 62 73 S13 29.75F  
HUNTINGTON* FAIR 71 61 70 S9 29.74F  
PERU/GRISSOM LGT RAIN 69 67 94 S13 29.71F  
 

 
INZ028>050-191200-  
CENTRAL INDIANA  
 
CITY SKY/WX TMP DP RH WIND PRES REMARKS
 
LAFAYETTE FAIR 69 62 78 S10G20 29.69F  
KOKOMO* LGT RAIN 69 63 81 S14 29.74F  
MUNCIE* FAIR 74 62 66 S14 29.76F  
INDIANAPOLIS CLOUDY 71 62 73 S13 29.75F  
 

 
MIZ043>046-050>051-056>058-064>065-071>073-077>080-191200-  
SOUTHWEST LOWER MICHIGAN  
 
CITY SKY/WX TMP DP RH WIND PRES REMARKS
 
BATTLE CREEK FAIR 65 60 84 S9 29.72F  
BENTON HARBOR CLOUDY 67 60 78 S6 29.68R  
COLDWATER* MOCLDY 69 63 81 S9 29.73F  
HILLSDALE* FAIR 63 59 87 SE6 29.76F  
HOLLAND LGT RAIN 65 59 81 S7 29.68S  
GRAND RAPIDS CLOUDY 63 58 83 SE5 29.69F  
KALAMAZOO CLOUDY 68 60 75 S8 29.71F  
STURGIS* CLOUDY 71 63 75 S12 29.72S  
THREE RIVERS* CLOUDY 71 62 74 S9 29.71S  
 

 
OHZ001>008-015>018-024>025-191200-  
NORTHWEST OHIO  
 
CITY SKY/WX TMP DP RH WIND PRES REMARKS
 
WAUSEON* FAIR 66 66 100 S8 29.78S  
DEFIANCE FAIR 71 63 75 S9G20 29.77F  
FINDLAY FAIR 71 63 75 S14 29.81S  
OTTAWA* FAIR 68 61 77 S10 29.82S  
TOLEDO EXPRESS FAIR 68 62 81 S5 29.78F  
LIMA FAIR 70 62 76 S14 29.82S  
 

 
AND FOR LAKE MICHIGAN COASTAL AND OPEN LAKE BUOY OBSERVATIONS  
 
STATION/POSITION TEMP WIND PRES VSBY WAVE
 
AIR SEA DIR/SP/G HT/PER  
(F) (DEG/KT/KT) (MB) (MI) (FT/S)  
CALUMET HARBOR 68 170/ 11/ 16 1002.8F  
MICHIGAN CITY 68 170/ 15/ 18 N/A  
BURNS HARBOR 67 180/ 7/ 11 1005.1R  
SAINT JOSEPH 67 200/ 10/ 24 1005.4  
SOUTH LAKE BUOY 47 39 150/ 12/ 12 1003.7F 2/ 5  
4 MI NW BRIDGMAN 62 51 220/ 16/ 19 1005.1 1/ 2  
MICHIGAN CITY 62 52 190/ 14/ 21 N/A 2/ 2  
 

 

 
 
 
CLICK HERE TO GO TO PREVIOUS BULLETINS.

The Nexlab IN Page
The Nexlab OH Page
The Nexlab MI Page Main Text Page